Tracking 25534 objects as of 29-Jan-2022
HD Live streaming from Space Station
objects crossing your sky now

THOR ABLESTAR DEB

Track THOR ABLESTAR DEB now!
10-day predictions


NORAD ID: 653
Int'l Code: 1961-015HE
Perigee: 902.2 km
Apogee: 1,134.9 km
Inclination: 67.5 °
Period: 105.4 minutes
Semi major axis: 7389 km
RCS: 0.0608 m2 (small)
Launch date: June 29, 1961
Source: United States (US)
Launch site: AIR FORCE EASTERN TEST RANGE (AFETR)

Note: This is SATELLITE DEBRIS
aabbcc
Your satellite tracking list
Your tracking list is empty




NASA's NSSDC Master Catalog

Two Line Element Set (TLE):
1 00653U 61015HE  22028.92463094  .00000349  00000-0  45913-3 0  9999
2 00653  67.4510 232.3268 0157428 169.8016 302.5910 13.66701412998932
Source of the keplerian elements: AFSPC